Stündliche Wetter Abay (Aralskiy rayon)

Heute, 18 Juni, Freitag

Zeit Temperatur Niederschläge Wind Luftdruck Luftfeuchtigkeit
00:00 +33°C° 0 mm 4 m/S 750 mmHg 22%
01:00 +32°C° 0 mm 4 m/S 749 mmHg 22%
02:00 +32°C° 0 mm 5 m/S 749 mmHg 21%
03:00 +32°C° 0 mm 5 m/S 749 mmHg 20%
04:00 +30°C° 0 mm 6 m/S 749 mmHg 19%
05:00 +32°C° 0.1 mm 6 m/S 749 mmHg 20%
06:00 +33°C° 0.1 mm 6 m/S 749 mmHg 21%
07:00 +33°C° 0.1 mm 7 m/S 749 mmHg 21%
08:00 +34°C° 0 mm 7 m/S 749 mmHg 25%
09:00 +35°C° 0 mm 7 m/S 749 mmHg 28%
10:00 +35°C° 0 mm 8 m/S 749 mmHg 31%
11:00 +36°C° 0 mm 7 m/S 749 mmHg 30%
12:00 +36°C° 0 mm 7 m/S 749 mmHg 29%
13:00 +36°C° 0 mm 7 m/S 749 mmHg 27%
14:00 +36°C° 0 mm 7 m/S 749 mmHg 26%
15:00 +37°C° 0 mm 8 m/S 749 mmHg 24%
16:00 +37°C° 0 mm 8 m/S 749 mmHg 22%
17:00 +35°C° 0 mm 9 m/S 749 mmHg 21%
18:00 +34°C° 0 mm 9 m/S 750 mmHg 21%
19:00 +33°C° 0 mm 9 m/S 750 mmHg 21%
20:00 +31°C° 0 mm 10 m/S 751 mmHg 25%
21:00 +28°C° 0 mm 10 m/S 752 mmHg 29%
22:00 +26°C° 0 mm 11 m/S 752 mmHg 34%
23:00 +24°C° 0 mm 10 m/S 753 mmHg 35%

Morgen, 19 Juni, Samstag

Zeit Temperatur Niederschläge Wind Luftdruck Luftfeuchtigkeit
00:00 +23°C° 0 mm 10 m/S 753 mmHg 36%
01:00 +22°C° 0 mm 9 m/S 754 mmHg 37%
02:00 +22°C° 0 mm 9 m/S 755 mmHg 37%
03:00 +21°C° 0 mm 8 m/S 755 mmHg 37%
04:00 +21°C° 0 mm 8 m/S 756 mmHg 38%
05:00 +21°C° 0 mm 8 m/S 756 mmHg 36%
06:00 +21°C° 0 mm 8 m/S 757 mmHg 33%
07:00 +21°C° 0 mm 9 m/S 757 mmHg 31%
08:00 +22°C° 0 mm 9 m/S 758 mmHg 28%
09:00 +23°C° 0 mm 9 m/S 758 mmHg 25%
10:00 +24°C° 0 mm 9 m/S 758 mmHg 22%
11:00 +24°C° 0 mm 9 m/S 758 mmHg 21%
12:00 +26°C° 0 mm 8 m/S 758 mmHg 19%
13:00 +27°C° 0 mm 8 m/S 758 mmHg 18%
14:00 +27°C° 0 mm 8 m/S 757 mmHg 17%
15:00 +27°C° 0 mm 8 m/S 757 mmHg 16%
16:00 +27°C° 0 mm 7 m/S 757 mmHg 16%
17:00 +27°C° 0 mm 7 m/S 757 mmHg 16%
18:00 +27°C° 0 mm 6 m/S 757 mmHg 17%
19:00 +26°C° 0 mm 6 m/S 757 mmHg 18%
20:00 +26°C° 0 mm 5 m/S 758 mmHg 19%
21:00 +25°C° 0 mm 4 m/S 758 mmHg 21%
22:00 +24°C° 0 mm 3 m/S 758 mmHg 22%
23:00 +24°C° 0 mm 2 m/S 758 mmHg 23%

übermorgen, 20 Juni, Sonntag

Zeit Temperatur Niederschläge Wind Luftdruck Luftfeuchtigkeit
00:00 +23°C° 0 mm 1 m/S 758 mmHg 24%
01:00 +22°C° 0 mm 1 m/S 758 mmHg 26%
02:00 +21°C° 0 mm 2 m/S 758 mmHg 26%
03:00 +21°C° 0 mm 2 m/S 758 mmHg 27%
04:00 +21°C° 0 mm 3 m/S 758 mmHg 28%
05:00 +22°C° 0 mm 3 m/S 758 mmHg 27%
06:00 +23°C° 0 mm 4 m/S 758 mmHg 26%
07:00 +26°C° 0 mm 4 m/S 758 mmHg 24%
08:00 +27°C° 0 mm 4 m/S 758 mmHg 24%
09:00 +28°C° 0 mm 5 m/S 758 mmHg 23%
10:00 +29°C° 0 mm 5 m/S 757 mmHg 23%
11:00 +30°C° 0 mm 5 m/S 757 mmHg 22%
12:00 +32°C° 0 mm 6 m/S 756 mmHg 21%
13:00 +33°C° 0 mm 6 m/S 756 mmHg 21%
14:00 +33°C° 0 mm 6 m/S 755 mmHg 21%
15:00 +34°C° 0 mm 6 m/S 755 mmHg 21%
16:00 +34°C° 0 mm 6 m/S 754 mmHg 21%
17:00 +34°C° 0 mm 6 m/S 754 mmHg 22%
18:00 +34°C° 0 mm 6 m/S 754 mmHg 23%
19:00 +34°C° 0 mm 5 m/S 754 mmHg 23%
20:00 +33°C° 0 mm 5 m/S 754 mmHg 26%
21:00 +32°C° 0 mm 4 m/S 753 mmHg 28%
22:00 +30°C° 0 mm 4 m/S 753 mmHg 31%
23:00 +29°C° 0 mm 4 m/S 753 mmHg 33%

21 Juni, Montag

Zeit Temperatur Niederschläge Wind Luftdruck Luftfeuchtigkeit
00:00 +29°C° 0 mm 4 m/S 753 mmHg 35%
01:00 +29°C° 0 mm 4 m/S 753 mmHg 37%
02:00 +28°C° 0 mm 5 m/S 753 mmHg 39%
03:00 +28°C° 0 mm 5 m/S 753 mmHg 41%
04:00 +27°C° 0 mm 5 m/S 753 mmHg 44%
05:00 +27°C° 0 mm 6 m/S 753 mmHg 44%
06:00 +27°C° 0 mm 7 m/S 754 mmHg 45%
07:00 +27°C° 0 mm 8 m/S 754 mmHg 45%
08:00 +28°C° 0 mm 7 m/S 754 mmHg 39%
09:00 +28°C° 0 mm 7 m/S 755 mmHg 34%
10:00 +29°C° 0 mm 7 m/S 755 mmHg 28%
11:00 +30°C° 0 mm 7 m/S 755 mmHg 24%
12:00 +30°C° 0 mm 7 m/S 755 mmHg 20%
13:00 +32°C° 0 mm 7 m/S 755 mmHg 17%
14:00 +32°C° 0 mm 7 m/S 755 mmHg 16%
15:00 +32°C° 0 mm 7 m/S 755 mmHg 15%
16:00 +32°C° 0 mm 7 m/S 755 mmHg 14%
17:00 +32°C° 0 mm 7 m/S 755 mmHg 14%
18:00 +30°C° 0 mm 7 m/S 755 mmHg 15%
19:00 +30°C° 0 mm 7 m/S 755 mmHg 15%
20:00 +28°C° 0 mm 6 m/S 756 mmHg 17%
21:00 +27°C° 0 mm 6 m/S 756 mmHg 19%
22:00 +26°C° 0 mm 6 m/S 756 mmHg 21%
23:00 +25°C° 0 mm 5 m/S 756 mmHg 24%

22 Juni, Dienstag

Zeit Temperatur Niederschläge Wind Luftdruck Luftfeuchtigkeit
00:00 +23°C° 0 mm 5 m/S 756 mmHg 27%
01:00 +22°C° 0 mm 4 m/S 756 mmHg 30%
02:00 +21°C° 0 mm 3 m/S 757 mmHg 32%
03:00 +21°C° 0 mm 3 m/S 757 mmHg 33%
04:00 +20°C° 0 mm 2 m/S 757 mmHg 35%
05:00 +21°C° 0 mm 2 m/S 757 mmHg 33%
06:00 +23°C° 0 mm 1 m/S 757 mmHg 31%
07:00 +24°C° 0 mm 1 m/S 758 mmHg 29%
08:00 +25°C° 0 mm 1 m/S 757 mmHg 27%
09:00 +26°C° 0 mm 1 m/S 757 mmHg 25%
10:00 +27°C° 0 mm 1 m/S 757 mmHg 23%
11:00 +28°C° 0 mm 1 m/S 757 mmHg 22%
12:00 +29°C° 0 mm 2 m/S 756 mmHg 21%
13:00 +30°C° 0 mm 2 m/S 756 mmHg 20%
14:00 +31°C° 0 mm 2 m/S 755 mmHg 19%
15:00 +32°C° 0 mm 2 m/S 755 mmHg 19%
16:00 +33°C° 0 mm 3 m/S 754 mmHg 18%
17:00 +33°C° 0 mm 3 m/S 754 mmHg 18%
18:00 +33°C° 0 mm 3 m/S 754 mmHg 18%
19:00 +33°C° 0 mm 3 m/S 753 mmHg 18%
20:00 +32°C° 0 mm 4 m/S 753 mmHg 20%
21:00 +30°C° 0 mm 4 m/S 752 mmHg 21%
22:00 +29°C° 0 mm 5 m/S 752 mmHg 23%
23:00 +28°C° 0 mm 5 m/S 752 mmHg 24%

23 Juni, Mittwoch

Zeit Temperatur Niederschläge Wind Luftdruck Luftfeuchtigkeit
00:00 +28°C° 0 mm 6 m/S 751 mmHg 26%
01:00 +28°C° 0 mm 6 m/S 751 mmHg 27%
02:00 +27°C° 0.1 mm 6 m/S 751 mmHg 40%
03:00 +24°C° 0.1 mm 6 m/S 752 mmHg 52%
04:00 +23°C° 0.1 mm 7 m/S 752 mmHg 64%
05:00 +23°C° 0 mm 7 m/S 752 mmHg 60%
06:00 +22°C° 0 mm 8 m/S 753 mmHg 55%
07:00 +22°C° 0 mm 9 m/S 754 mmHg 51%
08:00 +23°C° 0 mm 8 m/S 754 mmHg 43%
09:00 +24°C° 0 mm 8 m/S 754 mmHg 36%
10:00 +26°C° 0 mm 8 m/S 755 mmHg 29%
11:00 +26°C° 0 mm 8 m/S 755 mmHg 26%
12:00 +27°C° 0 mm 7 m/S 755 mmHg 24%
13:00 +28°C° 0 mm 7 m/S 755 mmHg 21%
14:00 +28°C° 0 mm 7 m/S 755 mmHg 20%
15:00 +29°C° 0 mm 7 m/S 755 mmHg 19%
16:00 +29°C° 0 mm 7 m/S 755 mmHg 18%
17:00 +28°C° 0 mm 7 m/S 755 mmHg 19%
18:00 +28°C° 0 mm 7 m/S 756 mmHg 20%
19:00 +27°C° 0 mm 7 m/S 756 mmHg 20%
20:00 +26°C° 0 mm 6 m/S 756 mmHg 22%
21:00 +24°C° 0 mm 6 m/S 757 mmHg 25%
22:00 +25°C° 0 mm 5 m/S 757 mmHg 27%
23:00 +23°C° 0 mm 5 m/S 757 mmHg 29%
Mehr zeigen

Wir brauchen deine Erlaubnis

Meteoprog und unser Service Anbieter werden persönliche Daten aufbewahren, so wie Cookies, Geräte Bezeichnung oder ähnliche Technologien von deinem Gerät und Prozess, so wie Persönliche Daten Inhalte und Werbungen, genauso wie social Media und den Verkehr zu analysieren.

  • Aufbewahrung und/oder Zugang zu deiner Geräte Informationen.

    Cookies, Geräte Bezeichnung oder andere Informationen, können aufbewahrt oder Zugang zu deinem Gerät erhalten, für den Grund, der oben angegeben wird.

  • Personalisierte Werbung und Inhalte, Messungen, Einblick in das Publikum und Produkt Entwicklung.

    Werbungen und Inhalte können personalisiert werden, basierend auf ein Profil. Mehr Daten können besser personalisierte Werbungen und Inhalte hinzufügen. Werbung und Inhalte können gezeigt und gemessen werden. Einblicke über das Publikum, welche die Werbung gesehen haben und den Inhalt, können abgeleitet werden. So wie Daten können genutzt werden, um es zu verbessern oder die Benutzer Erfahrung zu verbessern das System und die Software.

Wenn du “Ich stimme zu” klickst, erlaubst du uns, die Cookies zu benutzen die Geräte Bezeichnung, den Web oder ähnliche Technologien zu benutzen. Deine Settings, können in deinem Gerät bei deinem Browser geändert werden.

Für den bestimmten Zweck, berechtigten Interessen beruhen darauf, mehr als auf den Inhalt. Du kannst mehr darüber in unseren Privaten und Cookie Politik lesen.